Theta_e
305 304 305 305 305 304 304 305 308 307 307 304 302 301 298 295 293 295 293 288 288 288 288 288 288 288 287 287 287 287 286 286 285 285 284 284 283 282 280 279 278 276 276 276
300 305 306 307 305 304 305 304 303 303 303 300 297 294 293 292 293 295 295 291 287 287 287 288 289 289 288 287 287 286 286 285 284 284 284 283 281 280 278 277 276 275 274 273
309 297 297 300 298 302 302 300 301 301 301 290 293 293 292 291 290 291 292 291 289 287 288 288 289 289 288 287 286 286 285 285 285 284 283 280 279 277 276 275 274 273 271 270
298 295 302 300 292 293 296 296 292 291 288 289 292 293 291 289 289 288 288 287 286 287 288 289 289 288 287 286 286 285 285 284 283 281 279 278 277 275 274 273 271 270 269 268
302 292 295 297 293 291 291 291 291 292 292 292 291 288 287 287 285 286 285 286 288 289 289 288 288 287 286 285 285 284 283 281 279 278 276 275 274 273 271 270 269 269 267 266
288 295 296 295 290 289 290 290 286 288 289 288 287 287 289 286 285 285 287 288 289 289 288 286 286 286 285 284 282 281 279 278 276 275 274 273 271 270 270 268 267 266 265 265
293 299 290 288 288 289 288 291 284 285 288 286 287 288 288 286 285 287 288 288 289 287 287 287 285 284 282 281 280 279 277 275 274 273 272 271 270 269 268 267 265 265 264 264
288 292 292 289 288 291 291 288 288 286 287 287 287 288 286 286 285 286 286 288 288 287 286 285 284 282 280 279 277 276 274 272 272 272 271 270 268 268 267 266 264 263 263 263
291 290 290 288 290 289 289 288 288 288 287 287 287 287 286 285 285 285 286 287 288 286 284 283 281 279 278 276 274 272 271 271 271 270 269 269 268 268 266 264 263 262 263 263
288 288 288 288 288 288 288 288 288 288 288 286 286 286 287 285 285 285 286 285 286 284 281 280 278 277 275 273 272 270 270 269 269 268 268 267 267 266 264 264 263 262 263 264
287 289 288 288 287 288 288 287 287 286 287 286 285 286 286 286 284 285 285 284 284 281 279 278 276 274 272 271 270 269 268 268 267 267 266 266 266 266 264 264 264 266 268 269
288 289 290 290 288 287 287 287 287 286 286 285 285 286 285 284 285 285 283 282 279 279 278 276 274 272 270 269 268 268 267 267 266 265 265 264 264 264 267 265 267 268 269 269
290 290 289 288 287 287 286 286 286 285 285 286 286 285 285 283 284 283 282 279 277 276 275 273 271 270 269 268 267 267 266 265 265 264 264 263 263 262 261 269 266 265 266 267
288 289 289 288 289 288 286 286 287 286 285 285 284 282 282 280 277 277 275 276 275 273 271 270 269 269 268 267 267 266 265 265 264 264 263 263 262 262 261 261 261 265 265 264
287 288 289 288 285 285 284 281 280 281 279 275 276 277 276 273 273 272 271 271 270 269 268 267 267 268 267 267 266 266 265 265 264 264 263 262 261 261 261 261 261 261 263 264
288 284 284 284 287 283 280 276 279 280 274 271 271 272 272 272 271 269 268 268 267 266 267 266 266 267 265 265 265 264 264 263 263 263 262 262 261 261 261 261 260 261 261 261
282 281 274 278 282 281 279 276 277 274 272 271 270 269 268 267 266 266 265 265 265 265 265 265 266 265 264 264 264 264 263 263 263 262 262 262 261 261 261 260 260 260 261 262
285 286 280 280 281 279 273 271 271 270 266 267 266 266 265 265 263 264 263 263 262 262 264 265 265 265 264 264 263 263 262 263 262 262 262 262 261 261 261 260 261 260 261 262
274 277 273 273 271 272 269 266 264 264 265 265 265 263 263 262 262 261 260 260 261 261 265 263 263 263 264 263 262 262 262 262 261 261 261 261 261 261 261 261 261 260 260 260
266 267 266 264 265 265 262 263 263 261 261 262 262 261 261 261 260 260 259 259 261 262 262 262 262 261 261 262 261 261 261 261 261 261 260 261 261 261 261 261 260 260 260 261
263 263 262 261 259 261 261 262 261 259 260 261 261 260 260 260 260 259 259 256 262 261 260 261 261 262 262 262 261 261 260 260 260 260 260 260 260 260 260 260 260 260 261 260
258 259 259 259 258 256 259 260 261 260 260 260 260 260 260 260 260 260 260 259 261 261 261 261 261 261 261 261 261 261 260 260 259 259 260 260 260 260 260 260 260 260 260 260
259 259 259 259 258 257 258 259 259 260 260 260 260 260 260 260 260 258 257 261 261 261 261 261 261 261 261 261 261 261 260 260 260 260 260 260 260 259 259 260 259 259 260 260
258 258 256 257 258 258 256 258 259 260 260 260 261 261 261 261 261 261 260 260 260 260 260 261 261 261 262 262 261 260 260 259 259 260 260 259 259 259 259 259 259 260 260 260
257 256 256 257 258 256 258 259 259 260 260 260 260 260 260 260 259 260 260 260 260 260 260 260 260 261 260 260 260 259 259 259 259 259 258 258 259 259 259 259 259 260 260 260
256 256 256 258 258 258 258 259 259 259 259 259 259 259 259 259 259 259 259 259 259 259 259 259 259 259 259 259 259 259 259 259 259 259 259 259 259 259 259 259 259 259 259 259
256 257 257 257 258 258 258 258 259 259 258 258 259 259 259 259 259 259 259 259 259 259 259 259 259 259 258 258 258 258 258 258 258 258 258 258 258 258 258 258 258 259 259 259
Wind_Speed
1 4 4 3 5 9 8 7 11 8 12 6 10 9 8 8 7 7 7 8 10 9 15 19 19 19 17 16 15 12 9 7 6 8 12 17 21 24 26 29 32 34 35 37
2 2 1 5 7 9 10 7 8 9 17 7 5 6 5 7 7 7 8 7 7 9 13 17 21 22 21 18 15 13 11 9 7 11 16 20 23 26 30 33 34 36 35 33
7 2 3 8 12 15 10 6 8 11 17 2 6 7 7 8 8 8 7 7 8 9 17 21 24 25 22 17 15 13 11 9 12 15 18 21 24 28 31 33 35 35 33 30
3 2 6 3 2 3 8 10 7 3 3 6 4 2 4 5 6 7 6 6 6 12 14 17 19 22 19 16 16 12 11 11 14 16 18 22 26 28 30 31 33 33 34 33
4 5 7 9 5 7 7 9 9 10 8 4 2 2 5 4 5 6 7 13 17 18 19 18 17 16 17 17 15 12 11 12 13 15 19 21 22 25 27 30 32 33 27 29
3 5 8 6 2 5 5 6 7 7 7 6 5 1 7 6 6 9 14 13 13 16 18 17 18 20 20 19 15 13 12 12 14 16 17 19 21 23 25 26 30 28 29 30
6 7 8 6 5 3 6 8 5 8 7 7 5 7 5 5 7 16 20 19 18 18 21 23 22 22 20 17 15 12 12 13 13 13 15 17 19 20 23 26 27 30 30 30
2 3 9 7 6 8 5 1 6 6 7 7 9 9 7 8 8 14 19 21 19 19 22 24 24 22 19 17 14 14 13 12 12 12 13 16 18 20 22 24 26 27 27 27
11 8 1 7 6 12 5 6 6 6 7 8 8 9 11 8 10 15 21 25 25 23 23 24 24 21 18 15 15 14 13 11 11 12 13 14 17 20 23 22 22 20 20 23
4 4 5 7 7 5 6 8 6 6 6 7 10 12 12 9 9 10 20 24 24 23 24 27 24 20 17 15 14 13 12 11 11 12 13 13 15 18 20 22 20 18 22 25
2 4 3 8 8 7 8 8 7 7 8 10 10 13 11 9 8 17 22 20 24 27 27 28 23 19 16 14 13 12 11 11 11 12 13 15 15 17 19 21 19 23 24 26
5 8 6 6 6 9 9 12 12 9 8 9 10 13 10 11 19 20 19 19 21 25 25 22 20 18 15 14 13 12 12 11 11 12 13 15 16 22 17 16 17 20 22 22
7 10 7 8 7 6 10 11 10 8 9 11 14 17 16 11 15 16 13 17 21 23 19 18 18 16 14 14 14 13 12 11 11 12 13 14 15 17 21 26 19 13 14 19
9 3 6 8 9 8 8 11 14 12 14 13 16 10 10 9 4 8 10 12 14 15 15 15 15 14 14 14 14 13 13 11 11 12 12 13 14 16 17 17 21 32 24 20
12 14 17 9 3 7 6 3 4 7 5 3 4 4 6 6 6 7 8 9 9 10 11 12 13 13 14 15 16 15 15 13 12 12 11 12 13 16 15 16 17 21 28 26
11 8 8 9 14 7 5 3 7 7 4 3 5 6 6 7 8 8 7 7 7 8 9 12 14 13 13 16 16 15 14 13 12 12 12 12 11 13 13 14 17 18 20 22
4 5 1 5 9 8 9 3 5 3 5 7 9 9 9 8 7 6 4 4 6 9 11 15 18 13 14 17 17 16 15 14 13 13 13 11 10 10 11 13 16 17 20 18
11 11 6 6 7 7 5 5 7 9 3 9 11 9 8 6 4 3 2 6 10 14 16 18 18 17 16 18 18 16 16 15 15 14 12 12 10 10 10 11 13 15 18 18
4 7 5 5 3 5 7 6 9 12 13 12 10 8 5 3 1 4 6 9 12 16 18 9 9 9 12 13 15 16 16 16 15 14 12 11 11 10 10 10 11 13 15 17
5 8 11 9 11 9 10 15 17 15 12 11 10 6 3 2 3 6 9 12 16 19 19 19 19 19 18 16 14 16 17 17 15 14 12 11 11 10 10 10 12 14 14 16
7 7 8 10 11 16 17 16 16 13 10 8 7 5 1 3 6 8 11 12 16 14 12 13 14 11 9 12 14 15 16 15 15 14 13 12 11 12 12 12 13 15 16 17
4 6 9 12 12 14 13 13 12 11 8 6 4 2 2 5 5 8 10 13 11 11 11 11 10 11 12 12 14 14 14 15 15 14 14 13 13 14 15 15 16 17 17 18
11 10 14 13 11 12 10 10 10 9 8 5 3 2 4 5 6 7 6 8 12 13 11 11 12 13 13 14 14 14 14 15 15 15 15 15 15 15 16 17 17 17 18 18
12 14 10 13 16 15 7 6 7 6 6 4 2 1 3 4 7 2 7 11 13 13 13 13 12 12 12 9 11 13 14 14 15 15 16 16 16 16 17 17 18 17 18 18
10 10 11 11 9 7 9 7 7 6 4 3 2 2 3 5 6 10 11 12 13 12 13 12 9 8 11 12 13 13 13 14 14 15 17 17 17 18 19 19 19 20 20 21
7 7 9 10 11 9 7 6 6 4 4 4 1 2 4 6 7 9 10 11 12 11 11 11 11 11 12 13 13 14 14 15 16 17 18 18 19 20 21 21 22 22 22 23
10 8 9 8 7 6 6 5 4 2 1 3 6 4 7 7 8 9 9 11 12 11 11 12 12 13 13 14 15 16 17 18 19 19 19 20 21 22 22 22 22 22 22 22
Wind_Direction
219 158 144 212 197 182 192 212 213 230 225 185 202 210 220 235 246 253 215 197 201 202 208 210 211 213 216 219 219 220 225 241 269 302 319 323 323 323 324 325 324 323 321 320
313 295 15 264 226 199 231 234 250 265 270 248 172 212 201 211 214 214 223 216 206 214 213 217 221 223 223 227 226 224 226 229 268 298 310 315 316 319 320 321 322 322 321 319
238 66 66 284 224 213 219 199 210 227 246 141 222 198 217 220 200 207 208 206 207 213 221 228 230 232 232 232 222 210 216 250 281 297 304 311 316 318 321 322 322 321 320 318
143 107 223 260 130 125 227 243 208 267 229 213 223 251 247 225 195 204 198 211 224 225 229 236 239 235 235 214 204 213 237 263 281 293 302 310 314 317 319 320 320 320 318 319
192 194 322 284 195 167 173 257 195 212 223 209 121 33 291 222 204 204 206 225 231 230 231 234 226 216 199 196 208 222 245 264 278 290 303 308 311 315 319 319 319 319 316 312
133 179 215 257 58 109 100 276 213 173 184 188 122 168 264 214 207 225 221 212 224 239 242 237 222 207 202 204 212 225 242 258 276 295 301 307 313 315 316 317 315 314 310 315
210 234 283 218 203 146 116 252 166 175 185 152 181 212 220 189 205 216 219 231 244 249 242 234 215 203 204 209 221 235 246 260 279 291 301 307 309 313 315 317 315 316 316 317
88 209 267 159 79 173 203 217 175 189 199 184 216 239 215 210 217 217 229 237 247 239 230 226 214 207 209 217 229 238 252 269 282 291 301 307 309 315 317 318 316 316 313 308
188 203 189 198 188 220 169 175 204 193 208 204 224 230 230 222 216 226 235 245 251 234 221 217 210 211 214 222 227 242 253 268 282 294 301 307 312 316 318 317 312 306 302 298
106 200 208 214 240 241 203 228 229 217 226 200 222 234 235 228 239 234 242 234 234 216 210 208 209 212 220 225 235 245 257 270 285 296 304 311 313 315 311 310 308 299 296 293
230 255 174 243 231 231 233 234 250 241 228 232 215 240 229 239 232 240 242 231 220 212 209 210 207 214 224 235 241 248 259 277 290 296 306 312 312 314 308 306 302 298 301 303
214 218 202 230 213 214 225 246 246 235 259 245 211 235 235 236 243 241 234 223 210 211 212 206 207 215 227 238 243 250 258 273 286 297 307 309 312 317 317 300 305 305 306 308
229 228 208 220 231 218 209 230 238 222 229 250 258 227 237 235 244 243 227 211 206 202 201 203 209 220 231 240 247 252 258 270 282 292 298 303 312 314 313 326 326 321 319 320
223 145 262 222 236 241 212 241 241 244 247 240 251 248 238 213 198 191 188 192 188 191 198 206 219 233 238 239 243 246 257 267 276 285 288 299 306 305 305 304 311 323 332 328
234 205 229 251 145 234 208 181 221 242 226 217 233 210 176 157 159 161 164 171 180 192 207 222 234 244 243 244 241 243 251 261 268 271 282 292 296 296 301 305 305 308 325 334
249 196 218 214 245 234 198 207 225 252 159 147 142 131 130 135 145 156 169 189 201 220 240 241 247 255 246 245 242 246 253 260 262 266 279 284 291 293 301 306 309 315 312 322
142 254 226 239 223 220 215 197 200 174 147 157 160 148 141 134 131 149 183 233 255 259 260 262 267 266 253 250 243 250 254 256 257 261 271 281 283 288 297 303 307 314 315 332
221 242 190 189 200 198 169 147 134 136 122 141 138 135 130 139 152 162 256 279 280 280 278 283 280 268 253 243 242 251 251 254 255 258 268 269 273 281 289 296 303 310 316 330
195 190 137 105 82 114 117 119 119 123 123 127 128 118 116 110 33 310 302 297 300 302 306 306 299 264 243 235 252 249 248 253 253 256 259 265 269 273 281 290 300 306 314 323
108 103 111 102 100 107 110 122 126 119 121 125 120 114 98 41 325 310 305 297 295 293 300 291 281 259 250 253 250 250 254 255 253 255 254 259 267 276 281 289 297 302 312 319
90 92 96 98 91 105 118 129 130 126 126 119 112 112 21 333 320 312 301 300 316 319 307 301 285 277 253 253 252 252 256 255 254 255 258 263 270 277 283 289 294 299 309 313
102 108 106 111 112 112 116 119 124 127 125 116 107 103 292 305 312 304 299 285 330 332 330 309 281 276 278 272 260 255 259 257 259 261 266 269 273 279 285 291 296 301 307 311
107 117 125 126 126 130 118 115 119 121 122 123 132 206 256 298 301 289 314 345 332 333 316 310 307 294 284 274 258 257 264 261 262 265 267 271 276 280 283 288 292 299 304 308
106 114 113 128 128 126 104 107 111 109 109 106 92 314 300 326 330 308 318 316 315 315 308 306 302 301 281 259 252 269 268 267 269 271 273 275 277 280 282 286 288 295 298 304
100 115 128 126 111 110 123 123 118 107 90 86 78 15 336 324 301 315 315 313 311 307 304 306 304 295 287 286 282 276 275 276 276 276 276 278 280 281 283 285 289 295 298 301
123 118 117 109 124 129 122 116 116 98 58 41 73 340 319 307 303 310 310 311 306 309 308 307 303 299 297 293 288 285 283 283 282 280 281 283 284 285 286 288 291 294 296 298
114 120 119 109 111 111 106 100 84 79 21 349 331 344 330 322 320 318 319 313 312 314 312 309 304 304 304 301 295 291 287 286 284 285 284 285 285 287 288 290 293 296 297 298